Helicity
58 61 65 63 59 57 56 57 64 66 59 54 50 44 33 22 17 27 32 37 21 18 16 27 40 41 43 26 41 16 13 16 34 22 19 17 14 12 33 16 33 42 52 38 34 20 45
52 52 52 55 54 57 57 54 56 61 63 57 53 49 46 38 35 34 44 47 27 21 20 29 36 41 48 34 39 30 5 31 31 5 6 6 24 12 61 54 32 37 42 39 27 28 35
54 56 53 47 48 45 52 60 54 59 57 61 58 55 57 63 58 55 54 43 24 22 26 30 30 14 30 50 45 32 26 17 33 24 12 16 61 23 50 51 47 46 64 38 30 29 43
49 50 51 49 43 44 47 52 62 59 64 59 62 61 64 70 77 74 71 51 16 30 37 35 29 26 43 58 47 24 48 54 55 69 57 47 63 46 91 51 36 47 50 52 58 42 65
37 35 48 54 47 55 46 49 58 66 69 68 64 67 68 69 82 90 87 42 32 40 43 49 40 22 32 53 45 41 38 50 56 71 64 51 61 54 44 45 49 46 103 51 61 62 75
34 33 44 67 64 54 65 65 66 64 69 77 73 72 72 74 82 97 92 36 37 58 54 36 50 30 23 39 80 80 93 66 89 73 79 59 58 56 39 40 76 42 59 76 69 82 137
22 15 7 21 33 40 53 66 77 84 74 74 74 77 77 80 81 97 73 71 41 39 38 45 40 74 36 89 71 83 114 98 75 43 60 39 53 32 16 18 87 156 86 69 106 107 88
-5 1 22 17 13 30 42 57 61 80 90 80 81 77 77 80 76 73 84 61 75 77 41 16 76 69 64 74 85 80 91 98 94 52 62 76 32 26 60 61 46 53 70 62 82 89 140
39 34 36 37 22 17 29 49 55 63 81 91 90 87 73 69 64 66 31 36 69 60 52 49 50 72 80 68 80 68 71 102 49 45 40 47 66 80 52 61 52 44 51 57 100 87 93
14 23 29 36 38 13 27 39 52 64 64 84 93 81 76 70 68 57 54 11 44 55 57 34 77 84 108 107 106 105 94 106 100 38 47 53 52 58 52 48 46 58 37 60 98 80 95
8 16 29 33 40 32 33 44 55 58 66 65 72 70 69 47 101 82 84 74 56 66 90 74 115 110 125 160 125 164 140 137 79 92 103 83 46 51 57 49 59 97 97 65 73 59 100
21 13 22 31 31 48 46 47 52 58 53 50 49 58 64 59 72 78 73 94 103 127 84 80 100 110 147 165 190 164 180 202 218 131 113 161 139 106 152 129 136 136 128 131 120 120 131
38 33 22 21 34 49 61 64 67 56 49 45 39 27 36 77 103 113 99 133 146 187 115 94 90 85 101 142 178 130 132 149 136 127 100 110 105 144 146 139 159 127 117 127 131 176 145
35 29 17 24 39 52 70 81 90 79 62 67 49 21 40 72 96 115 138 180 211 159 191 158 123 139 122 136 150 138 130 132 178 164 146 83 109 118 168 195 173 90 84 177 121 80 64
56 39 38 44 54 62 67 91 97 81 44 33 9 28 53 66 89 117 177 182 242 243 246 167 156 106 144 146 145 161 119 157 172 167 177 116 146 126 168 164 188 148 152 174 185 151 214
62 57 55 66 72 78 76 92 110 100 39 12 0 7 41 66 77 119 170 187 195 208 230 238 148 162 100 122 131 113 115 156 157 171 169 173 169 179 159 157 181 218 249 179 196 207 138
40 54 63 72 85 96 90 95 132 126 60 19 10 11 33 39 62 125 134 146 149 181 191 245 199 214 250 165 167 155 169 170 185 167 199 201 206 149 171 288 312 216 207 238 267 271 253
40 47 58 72 85 102 107 102 141 137 94 34 19 18 44 21 76 94 145 130 134 156 161 165 178 216 198 199 240 210 187 204 165 175 181 189 205 231 239 186 219 218 257 248 232 185 224
37 37 49 71 88 107 126 124 152 142 71 43 36 50 53 35 29 42 65 81 116 129 159 132 130 165 155 186 175 171 173 200 209 174 172 188 190 161 133 126 140 207 216 217 214 214 213
32 40 44 63 80 89 121 146 185 151 68 47 50 42 80 89 70 46 76 64 72 116 109 119 99 117 131 170 190 129 167 186 202 177 197 163 183 206 208 207 186 176 189 228 238 204 258
19 30 31 41 63 77 102 130 198 170 72 39 83 74 94 71 98 94 102 66 102 89 98 130 115 134 133 137 160 152 158 160 180 171 163 168 163 167 172 175 170 159 182 197 195 233 204
18 17 23 31 43 58 76 104 162 224 93 42 73 71 103 106 145 117 117 106 101 113 145 121 107 144 148 160 181 129 148 151 152 142 143 147 136 140 145 162 144 144 185 198 213 210 215
11 13 16 24 31 41 54 71 117 172 89 29 39 61 82 109 110 106 107 111 123 120 160 154 137 178 204 176 163 177 182 169 133 132 144 142 131 125 147 132 135 101 202 238 236 274 276
8 6 5 13 21 31 37 52 72 102 70 1 21 28 56 93 134 119 110 133 160 141 112 136 138 135 119 99 143 165 166 190 175 176 179 124 143 165 133 110 102 183 213 220 222 199 190
8 17 21 19 25 33 41 49 62 69 76 -8 15 22 50 75 91 110 109 130 148 170 195 180 147 134 75 112 123 101 109 110 182 195 192 149 150 151 118 88 188 221 243 239 248 230 171
35 34 36 35 38 47 58 60 79 88 97 16 27 7 26 43 91 100 106 104 116 141 161 173 173 124 99 120 114 101 109 132 120 157 158 157 189 171 183 175 173 259 177 121 134 191 137
52 55 61 62 62 64 63 73 92 108 114 67 52 78 44 69 127 154 147 117 136 158 162 161 157 140 113 121 139 145 158 199 162 160 147 175 212 173 158 206 240 162 126 90 176 170 108
61 66 74 71 66 75 80 84 97 112 121 98 75 94 105 113 189 195 188 169 156 156 147 148 161 160 144 150 149 173 197 217 213 222 213 236 219 228 235 230 198 99 98 113 133 93 100
70 67 68 63 45 53 56 64 77 107 114 107 101 100 147 176 180 193 227 245 202 199 171 202 192 189 195 187 225 212 207 209 198 227 220 226 234 235 231 229 145 114 114 123 140 122 112
Wind_Speed
59 59 59 60 59 59 58 58 57 56 55 54 53 51 50 48 47 44 42 40 33 27 26 29 28 23 30 44 51 37 37 25 24 28 21 22 37 48 50 51 41 57 46 44 46 39 37
61 60 61 61 62 62 61 59 59 58 57 56 54 53 51 49 47 44 41 39 34 20 20 27 24 22 41 51 37 33 20 13 26 23 23 30 43 47 50 44 48 39 53 47 42 43 34
63 63 63 63 63 63 63 62 61 60 58 58 56 54 52 50 48 45 42 39 31 16 18 31 21 27 47 45 33 24 15 22 17 28 27 39 40 44 40 42 39 40 43 45 46 41 32
65 66 66 66 66 65 65 64 63 62 61 59 58 56 53 51 49 46 43 41 22 18 16 22 20 38 46 35 31 22 23 23 22 27 33 35 41 48 42 33 33 42 44 45 26 28 28
68 69 69 69 69 69 67 66 65 64 63 61 60 58 55 52 49 46 42 32 20 17 15 13 24 40 44 29 32 25 25 24 21 25 29 28 36 42 40 41 42 41 47 40 29 29 25
71 72 71 71 70 69 69 68 67 66 65 63 61 59 56 53 49 45 39 28 17 15 15 18 37 39 40 38 27 26 27 16 25 22 27 34 39 46 47 48 44 51 51 38 32 26 24
71 72 71 71 69 69 68 68 68 67 67 65 63 61 58 54 49 43 24 19 24 28 28 31 34 40 25 23 17 27 22 24 26 30 37 37 47 54 54 55 55 43 39 36 29 25 26
71 70 70 70 69 69 68 68 68 68 67 66 65 62 59 55 50 44 41 37 39 34 36 33 36 35 28 24 29 23 21 32 32 38 38 40 60 57 49 51 55 52 50 47 37 34 38
69 71 73 71 70 69 69 68 68 68 68 67 65 63 58 54 49 44 35 39 39 38 42 34 35 35 31 27 33 23 23 35 39 40 42 49 42 48 48 49 52 54 53 47 46 36 38
71 72 74 74 72 70 68 67 67 68 69 68 66 62 56 47 41 40 45 52 39 36 46 34 35 33 29 28 34 25 24 33 38 45 44 55 47 41 40 50 49 58 50 53 46 43 55
71 73 73 75 74 71 68 67 65 66 67 67 63 57 52 42 40 37 37 23 31 32 54 29 29 25 24 30 17 32 30 36 40 38 39 44 44 47 54 54 50 57 46 49 50 55 62
73 74 74 75 75 73 67 67 66 67 66 64 58 51 43 36 37 35 27 26 23 37 58 34 27 26 22 28 35 26 30 34 36 40 47 47 38 41 43 41 42 33 35 37 41 48 73
72 73 73 73 74 72 73 69 68 68 65 59 50 39 31 33 35 31 23 22 37 52 31 35 34 24 19 29 31 30 30 36 45 48 55 50 51 43 41 43 39 39 38 53 61 64 76
72 72 67 68 71 70 72 71 69 68 62 49 37 30 30 31 36 29 25 37 60 50 38 36 30 25 38 27 36 33 30 39 39 44 44 47 56 44 42 48 49 45 45 55 69 70 65
71 73 70 71 72 72 72 71 70 67 54 43 35 32 33 37 29 25 31 58 56 46 44 33 28 34 40 38 36 34 37 38 39 40 46 45 47 33 35 39 40 39 55 50 62 64 69
71 71 71 72 72 73 74 73 72 65 53 43 34 34 38 32 22 20 37 52 50 43 43 42 43 44 42 40 40 39 35 40 39 39 41 42 49 41 39 38 39 45 42 54 55 72 81
71 71 72 72 72 73 75 74 71 63 52 38 32 36 36 25 21 28 49 48 40 40 42 45 45 43 42 40 44 40 41 42 41 42 41 45 49 46 41 48 50 50 53 53 56 62 75
74 72 71 72 72 73 74 76 72 63 51 28 33 35 33 20 25 32 38 37 34 36 36 39 40 41 42 41 42 43 45 44 40 40 43 40 45 50 51 39 42 47 53 55 65 68 66
75 75 72 72 72 73 74 75 76 63 47 32 32 31 29 22 30 33 26 32 35 34 35 36 37 36 34 37 44 38 38 36 37 35 38 38 45 51 52 50 47 51 51 51 52 60 73
77 76 74 72 73 74 75 74 75 65 46 31 28 31 27 27 31 26 25 28 29 29 30 30 29 29 28 32 34 32 33 33 32 30 34 35 40 48 58 51 45 49 48 49 54 67 70
79 77 74 74 73 70 72 71 73 66 45 33 32 31 31 31 31 24 24 24 23 28 30 30 29 30 30 31 30 31 31 29 33 36 36 38 46 45 44 47 49 53 56 59 62 63 75
77 80 77 74 72 72 71 70 71 70 46 31 34 29 29 27 26 21 28 24 22 24 32 32 28 28 30 31 35 32 27 34 37 34 37 38 45 43 52 49 52 60 59 60 62 65 69
76 77 76 75 73 72 73 73 72 70 48 35 35 32 33 29 26 28 31 25 24 23 31 25 17 19 21 23 22 22 23 26 28 33 36 39 41 46 59 51 55 70 62 61 61 58 63
77 77 77 77 76 74 74 71 70 67 56 41 39 39 36 31 30 30 25 19 21 29 24 22 24 28 24 15 19 23 25 28 30 34 38 37 40 48 57 54 78 58 50 50 55 55 55
78 79 78 78 77 76 74 73 71 68 62 45 44 39 37 32 23 23 21 17 17 18 18 21 28 20 8 22 30 34 39 40 40 40 40 36 42 52 59 64 62 60 55 58 63 65 55
78 80 80 81 80 79 77 76 74 70 65 52 48 43 39 27 33 27 22 21 23 28 28 27 24 19 20 33 38 46 49 44 46 44 39 39 44 54 57 72 82 57 46 46 54 79 52
78 80 81 82 82 82 80 79 77 74 68 57 48 48 40 36 34 33 36 33 32 33 32 27 25 28 32 37 42 47 50 45 51 51 51 49 52 59 60 66 61 47 46 43 74 72 51
77 80 82 82 83 82 83 80 79 76 70 60 49 49 40 37 37 37 36 35 34 34 34 28 29 36 35 40 43 44 46 44 46 46 49 53 56 58 58 65 77 38 43 63 56 51 59
75 81 82 84 82 84 84 80 80 77 70 58 46 42 37 33 32 23 25 30 33 34 31 29 37 32 35 37 39 37 43 43 43 54 42 53 49 52 53 55 40 40 49 44 46 54 59
Wind_Direction
339 336 332 328 326 323 322 321 318 314 310 308 306 306 305 304 305 303 300 290 298 296 291 284 282 282 271 257 254 281 274 260 241 240 241 246 243 239 241 239 246 240 248 253 253 262 267
337 334 332 328 324 320 319 317 315 312 308 305 303 302 300 299 301 299 295 284 290 314 302 281 281 276 260 250 278 282 288 253 243 238 243 246 247 242 245 247 244 258 247 255 261 262 273
335 333 332 329 323 321 315 315 310 309 306 302 300 297 297 296 296 296 292 282 296 335 307 271 281 268 254 256 284 284 277 256 243 247 246 248 259 244 254 251 259 259 259 260 261 265 271
336 333 331 328 324 320 316 312 313 304 303 300 297 296 294 293 293 294 292 282 327 323 315 289 287 262 256 280 281 276 266 257 253 256 253 256 254 245 253 265 263 258 262 259 270 272 271
337 332 330 329 323 318 315 312 308 308 301 299 296 294 292 291 290 292 293 307 333 332 324 322 287 263 261 288 269 266 262 253 252 262 264 265 256 251 254 253 256 259 259 260 271 272 276
334 332 331 329 323 316 313 311 307 305 303 297 295 291 290 289 288 286 289 304 352 4 329 312 281 267 270 267 272 264 263 251 257 258 263 258 255 252 251 248 253 254 255 265 269 273 274
337 334 333 329 319 316 312 310 307 302 300 299 293 291 288 286 286 280 299 319 306 300 286 284 286 274 292 292 293 264 258 255 260 256 257 255 251 249 251 252 259 268 266 268 271 275 274
336 338 340 335 323 318 315 310 308 303 298 296 295 291 286 284 282 276 273 281 284 291 288 280 283 280 291 287 275 264 254 254 253 254 256 259 251 253 262 259 260 263 266 268 275 275 276
335 330 332 331 327 320 316 312 309 306 299 293 290 290 293 282 283 277 275 276 286 286 282 291 278 277 281 281 276 258 251 261 255 255 257 258 270 266 262 263 262 264 266 269 273 280 274
332 332 335 332 325 320 315 312 308 306 302 298 292 287 287 295 287 277 272 261 279 284 278 284 278 279 276 279 274 278 263 265 264 258 263 262 268 271 269 264 265 265 271 270 273 274 272
333 334 333 335 330 323 317 313 308 305 300 299 296 291 283 283 291 277 281 296 277 281 269 287 279 287 278 270 289 269 271 269 266 266 267 271 271 268 266 267 270 271 279 275 273 273 275
344 339 338 335 331 327 316 315 311 307 303 297 294 291 294 289 283 287 294 275 283 272 266 280 283 275 269 272 277 281 269 279 281 273 270 275 283 276 278 280 275 282 282 283 281 278 270
346 341 337 333 331 325 324 315 313 310 306 301 299 303 305 292 282 283 281 268 264 263 280 277 274 271 268 270 276 273 265 266 268 268 265 269 271 279 279 277 280 274 273 275 273 271 273
337 334 327 326 328 325 324 320 315 314 310 305 310 325 315 304 287 273 265 256 259 268 271 279 277 264 268 272 276 273 267 269 274 275 278 266 272 272 280 275 277 268 268 273 274 274 278
338 339 330 329 330 328 326 322 319 316 311 306 322 330 322 308 288 272 257 251 265 272 272 271 269 263 269 268 277 273 270 272 278 278 275 274 276 288 290 284 282 275 272 283 281 283 281
336 334 333 331 329 329 329 325 323 318 313 312 333 327 323 314 304 278 263 261 270 278 276 269 267 270 266 263 269 268 268 281 280 284 283 284 279 284 288 289 288 284 288 280 279 279 278
342 336 334 332 328 328 329 326 323 316 309 326 338 317 325 329 315 276 260 269 277 280 276 269 269 268 271 271 269 268 274 282 286 284 287 284 282 285 285 285 283 283 282 284 286 284 282
349 341 337 334 331 330 330 330 325 317 307 346 329 313 322 341 305 290 273 278 284 280 283 280 276 273 272 273 272 273 274 282 292 289 283 288 286 280 283 293 297 290 286 287 281 283 286
356 352 342 338 336 333 332 332 331 322 323 332 322 324 323 316 303 289 303 282 281 281 282 282 280 283 284 275 274 278 282 292 295 293 288 290 284 281 285 288 291 289 292 292 291 290 284
357 353 348 343 340 338 337 334 333 327 316 328 336 312 326 308 307 307 296 291 286 290 285 289 287 288 283 281 288 283 284 296 301 300 302 298 291 287 283 290 297 292 294 297 294 287 288
11 356 349 346 343 339 339 336 335 332 312 317 330 319 311 306 301 305 309 309 292 289 287 289 290 288 285 285 287 287 290 292 300 299 299 298 290 293 297 298 298 295 295 296 293 293 289
3 2 354 347 343 341 340 339 339 338 316 328 321 331 323 320 313 314 304 302 293 295 291 288 289 291 291 290 292 286 291 293 295 303 301 304 295 298 295 302 300 296 298 298 297 296 295
0 357 352 348 345 343 343 344 344 346 335 329 318 312 311 315 312 303 299 300 295 296 300 305 308 311 309 311 326 329 325 316 312 304 303 303 300 299 294 302 302 295 299 300 301 304 301
359 357 352 350 346 345 344 343 344 344 343 327 316 304 309 310 306 304 308 311 301 298 299 301 304 298 309 19 5 348 340 333 322 315 313 306 305 305 299 303 293 305 313 311 307 308 310
2 358 351 348 346 344 341 340 341 342 341 331 327 310 308 307 311 310 307 313 319 327 320 313 309 323 25 316 307 303 303 304 313 316 315 315 310 304 301 298 304 305 310 309 308 307 313
0 357 354 350 346 343 340 339 337 335 334 330 334 319 307 311 301 300 301 304 299 295 298 305 320 326 314 303 301 295 295 303 302 308 320 318 317 307 304 299 298 311 320 324 318 304 317
357 354 351 348 345 343 340 338 333 332 330 328 328 325 308 307 301 294 291 290 294 294 295 297 303 303 307 301 298 297 297 306 300 301 304 308 309 304 304 303 308 317 321 327 308 310 321
359 355 351 347 345 343 339 337 334 331 328 327 323 325 315 306 300 301 300 295 293 293 291 294 300 301 301 298 300 303 304 306 307 310 309 308 307 308 309 305 303 323 324 313 320 324 322
359 355 352 349 348 345 342 339 333 329 326 324 321 328 331 313 305 322 328 322 309 305 303 297 301 303 305 303 306 310 307 309 308 305 319 307 313 314 314 315 328 331 325 330 331 326 326